Voltar ao catálogo

STARLINK-33853

AtivoComunicaçõesVLEO
NORAD 63684·PAYLOAD·🇺🇸 United States

Lançado Apr 28, 2025 de Cape Canaveral Space Force Station

Loading…

Próximas Passagens (próximas 24 horas)

TLE

AtualizadoSource: CelesTrak SupGP

Época: Sep 14, 2026, 20:41 UTC

1 63684C 25085W   26257.86229167  .00052487  00000+0  19008-2 0  2572
2 63684  43.0041  42.2406 0001462 272.7239 143.7169 15.27557192    10

Acompanhe STARLINK-33853 em tempo real com AllMySat

Download on the App Store